Alpena, MI

4:45 PM EDT on September 28, 2016 (GMT -0400)
Alpena County Regional

Weather History for KAPN - March, 2013

Change the Weather History Date:

Sunday, March 3, 2013

  Actual Average Record
Temperature  
Mean Temperature 13 °F 24 °F  
Max Temperature 19 °F 33 °F 63 °F (1974)
Min Temperature 6 °F 15 °F -21 °F (1943)
Degree Days  
Heating Degree Days 52 41  
Month to date heating degree days 141 124  
Since 1 July heating degree days 5451 5856  
Cooling Degree Days 0 0  
Month to date cooling degree days 0 0  
Year to date cooling degree days 0 0  
Moisture  
Dew Point 10 °F    
Average Humidity 78    
Maximum Humidity 88    
Minimum Humidity 67    
Precipitation  
Precipitation T in 0.06 in 0.48 in (1951)
Month to date precipitation T 0.17  
Year to date precipitation 4.48 3.15  
Snow  
Snow T in 0.50 in 12.20 in (1989)
Month to date snowfall T 1.5  
Since 1 July snowfall 38.3 67.6  
Snow Depth 8.00 in    
Sea Level Pressure  
Sea Level Pressure 30.07 in    
Wind  
Wind Speed 7 mph (NW)    
Max Wind Speed 16 mph    
Max Gust Speed 20 mph    
Visibility 9 miles    
Events Snow    
T = Trace of Precipitation, MM = Missing Value Source: NWS Daily Summary

Daily Weather History Graph

Daily Weather History Graph

Search for Another Location

Airport or City:

Trip Planner

Search our weather history database for the weather conditions in past years. The results will help you decide how hot, cold, wet, or windy it might be!

Date:

Astronomy

Mar. 03, 2013 Rise Set
Actual Time 7:08 AM EST 6:24 PM EST
Civil Twilight 6:38 AM EST 6:54 PM EST
Nautical Twilight 6:04 AM EST 7:28 PM EST
Astronomical Twilight 5:30 AM EST 8:02 PM EST
Moon 12:19 AM EST (3/3) 10:04 AM EST (3/3)
Length of Visible Light 12h 15m
Length of Day
11h 16m
Waning Gibbous, 64% of the Moon is Illuminated
Mar 3
Waning Gibbous
Mar 4
Last Quarter
Mar 11
New
Mar 19
First Quarter
Mar 27
Full

Hourly Weather History & Observations

Time (EST) Temp. Windchill Dew Point Humidity Pressure Visibility Wind Dir Wind Speed Gust Speed Precip Events Conditions
12:50 AM 15.8 °F 7.2 °F 10.4 °F 79% 30.04 in 10.0 mi WNW 5.8 mph - N/A   Scattered Clouds
12:54 AM 15.1 °F 6.4 °F 10.9 °F 84% 30.08 in 10.0 mi WNW 5.8 mph - N/A   Partly Cloudy
1:54 AM 14.0 °F 6.5 °F 10.0 °F 84% 30.09 in 10.0 mi West 4.6 mph - N/A   Mostly Cloudy
2:54 AM 14.0 °F 6.5 °F 10.0 °F 84% 30.07 in 10.0 mi West 4.6 mph - N/A   Overcast
3:54 AM 15.1 °F 7.7 °F 10.9 °F 84% 30.06 in 10.0 mi WNW 4.6 mph - N/A   Overcast
4:54 AM 15.1 °F - 12.0 °F 88% 30.06 in 7.0 mi Calm Calm - 0.00 in   Overcast
5:54 AM 16.0 °F - 12.0 °F 84% 30.07 in 8.0 mi Calm Calm - N/A   Overcast
6:21 AM 15.8 °F - 12.2 °F 86% 30.03 in 8.0 mi Calm Calm - 0.00 in   Overcast
6:46 AM 17.6 °F 9.3 °F 12.2 °F 79% 30.03 in 8.0 mi NNW 5.8 mph - 0.00 in   Overcast
6:54 AM 17.1 °F 6.6 °F 12.0 °F 81% 30.07 in 9.0 mi NNW 8.1 mph - 0.00 in   Overcast
7:54 AM 17.1 °F 8.7 °F 10.9 °F 77% 30.08 in 5.0 mi North 5.8 mph - 0.00 in Snow Light Snow
8:54 AM 17.1 °F 4.3 °F 10.0 °F 74% 30.08 in 7.0 mi North 11.5 mph - 0.00 in   Overcast
9:54 AM 17.1 °F 5.0 °F 10.0 °F 74% 30.08 in 5.0 mi North 10.4 mph - 0.00 in   Haze
10:54 AM 17.1 °F 6.6 °F 10.0 °F 74% 30.08 in 5.0 mi North 8.1 mph - 0.00 in Snow Light Snow
11:54 AM 17.1 °F 5.0 °F 10.0 °F 74% 30.08 in 4.0 mi NNW 10.4 mph - 0.00 in Snow Light Snow
12:54 PM 17.1 °F 3.6 °F 10.0 °F 74% 30.07 in 10.0 mi NNW 12.7 mph - 0.00 in   Overcast
1:54 PM 17.1 °F 5.0 °F 10.0 °F 74% 30.06 in 9.0 mi North 10.4 mph - 0.00 in   Overcast
2:54 PM 17.1 °F 5.0 °F 10.0 °F 74% 30.06 in 10.0 mi North 10.4 mph - N/A   Overcast
3:54 PM 19.0 °F 7.5 °F 10.9 °F 71% 30.05 in 10.0 mi NNW 10.4 mph - N/A   Overcast
4:54 PM 18.0 °F 5.4 °F 10.0 °F 71% 30.06 in 10.0 mi NNW 11.5 mph - N/A   Mostly Cloudy
5:07 PM 17.6 °F 4.3 °F 10.4 °F 73% 30.02 in 10.0 mi North 12.7 mph - N/A   Scattered Clouds
5:54 PM 17.1 °F 6.6 °F 10.0 °F 74% 30.07 in 10.0 mi NNW 8.1 mph - N/A   Clear
6:54 PM 15.1 °F - 9.0 °F 77% 30.08 in 10.0 mi Calm Calm - N/A   Clear
7:54 PM 12.9 °F - 8.1 °F 81% 30.08 in 10.0 mi Calm Calm - N/A   Clear
8:54 PM 7.0 °F -1.7 °F 3.9 °F 87% 30.09 in 10.0 mi West 4.6 mph - N/A   Clear
9:54 PM 6.1 °F -2.8 °F 3.0 °F 87% 30.08 in 10.0 mi West 4.6 mph - N/A   Scattered Clouds
10:04 PM 10.4 °F -0.4 °F 6.8 °F 85% 30.04 in 10.0 mi West 6.9 mph - N/A   Mostly Cloudy
10:38 PM 12.2 °F 2.9 °F 8.6 °F 85% 30.04 in 10.0 mi WNW 5.8 mph - N/A   Partly Cloudy
10:54 PM 12.0 °F 4.1 °F 7.0 °F 80% 30.09 in 10.0 mi West 4.6 mph - N/A   Partly Cloudy
11:10 PM 12.2 °F 2.9 °F 8.6 °F 85% 30.04 in 10.0 mi West 5.8 mph - N/A   Mostly Cloudy
11:54 PM 14.0 °F 3.9 °F 9.0 °F 80% 30.09 in 10.0 mi West 6.9 mph - N/A   Overcast